This is the latest recevied weather packets stored in our database for station/object DG8SF-13. If no packets are shown the sender has not sent any weather packets the latest 10 day(s).
| Time | Temp. | Humidity | Pressure | Rain* | Wind** | Luminosity | Snow |
|---|---|---|---|---|---|---|---|
| 1777380898 | 21.11° C | 29% | 1016.2 hPa | 0 mm | - | - | - |
| 1777380585 | 21.67° C | 30% | 1016.4 hPa | 0 mm | - | - | - |
| 1777380273 | 21.67° C | 29% | 1016.3 hPa | 0 mm | - | - | - |
| 1777379962 | 21.11° C | 30% | 1016.3 hPa | 0 mm | - | - | - |
| 1777379650 | 21.67° C | 31% | 1016.4 hPa | 0 mm | - | - | - |
| 1777379336 | 21.11° C | 32% | 1016.3 hPa | 0 mm | - | - | - |
| 1777379026 | 21.11° C | 31% | 1016.5 hPa | 0 mm | - | - | - |
| 1777378713 | 20.56° C | 32% | 1016.4 hPa | 0 mm | - | - | - |
| 1777378408 | 21.11° C | 32% | 1016.6 hPa | 0 mm | - | - | - |
| 1777378089 | 20.56° C | 34% | 1016.4 hPa | 0 mm | - | - | - |
| 1777377779 | 20° C | 33% | 1016.5 hPa | 0 mm | - | - | - |
| 1777377464 | 20.56° C | 33% | 1016.6 hPa | 0 mm | - | - | - |
| 1777377159 | 20.56° C | 33% | 1016.5 hPa | 0 mm | - | - | - |
| 1777376841 | 20.56° C | 34% | 1016.6 hPa | 0 mm | - | - | - |
| 1777376531 | 21.11° C | 32% | 1016.6 hPa | 0 mm | - | - | - |
| 1777376219 | 20.56° C | 32% | 1016.8 hPa | 0 mm | - | - | - |
| 1777375906 | 20° C | 34% | 1016.8 hPa | 0 mm | - | - | - |
| 1777375593 | 20° C | 33% | 1016.7 hPa | 0 mm | - | - | - |
| 1777375281 | 20° C | 34% | 1016.8 hPa | 0 mm | - | - | - |
| 1777374968 | 20° C | 34% | 1016.8 hPa | 0 mm | - | - | - |
| 1777374658 | 20° C | 34% | 1016.8 hPa | 0 mm | - | - | - |
| 1777374345 | 19.44° C | 35% | 1016.8 hPa | 0 mm | - | - | - |
| 1777374033 | 18.89° C | 35% | 1016.9 hPa | 0 mm | - | - | - |
| 1777373721 | 18.89° C | 35% | 1016.9 hPa | 0 mm | - | - | - |
| 1777373410 | 18.33° C | 36% | 1017 hPa | 0 mm | - | - | - |
* Rain latest hour (hover to see other rain measurements)
** Current wind speed in m/s (hover to see current wind gust speed)